| time (UTC) | temp F | wind direction | speed MPH | gust MPH | rain 1hr in | rain 24hr in | rain mn in | humidity % | barometer mb |
| 20260508060048 | 60 | 132 | 2.0 | 5.0 | 0.00 | 0.00 | 0.00 | 67 | 1014.2 |
| 20260508054551 | 60 | 148 | 2.0 | 5.0 | 0.00 | 0.00 | 0.00 | 68 | 1014.3 |
| 20260508053053 | 59 | 136 | 3.0 | 4.0 | 0.00 | 0.00 | 0.00 | 69 | 1014.3 |
| 20260508051552 | 60 | 119 | 4.0 | 7.0 | 0.00 | 0.00 | 0.00 | 68 | 1014.1 |
| 20260508050058 | 60 | 123 | 2.0 | 4.0 | 0.00 | 0.00 | 0.00 | 68 | 1014.4 |
| 20260508044558 | 60 | 128 | 3.0 | 4.0 | 0.00 | 0.00 | 0.00 | 69 | 1014.7 |
| 20260508043053 | 61 | 122 | 2.0 | 3.0 | 0.00 | 0.00 | 0.00 | 67 | 1014.8 |
| 20260508041547 | 62 | 119 | 2.0 | 6.0 | 0.00 | 0.00 | 0.00 | 66 | 1015.1 |
| 20260508040058 | 62 | 121 | 4.0 | 7.0 | 0.00 | 0.00 | 0.00 | 66 | 1015.0 |
| 20260508034552 | 63 | 121 | 5.0 | 11.0 | 0.00 | 0.00 | 0.00 | 64 | 1015.3 |
| 20260508033111 | 63 | 132 | 5.0 | 10.0 | 0.00 | 0.00 | 0.00 | 65 | 1015.0 |
| 20260508031551 | 63 | 101 | 7.0 | 13.0 | 0.00 | 0.00 | 0.00 | 65 | 1014.9 |
| 20260508030106 | 64 | 119 | 6.0 | 11.0 | 0.00 | 0.00 | 0.00 | 66 | 1014.6 |
| 20260508024615 | 64 | 115 | 7.0 | 10.0 | 0.00 | 0.00 | 0.00 | 64 | 1014.3 |
| 20260508023051 | 65 | 103 | 4.0 | 8.0 | 0.00 | 0.00 | 0.00 | 63 | 1014.3 |
| 20260508021551 | 66 | 117 | 4.0 | 9.0 | 0.00 | 0.00 | 0.00 | 59 | 1014.0 |
| 20260508020107 | 68 | 128 | 6.0 | 9.0 | 0.00 | 0.00 | 0.00 | 56 | 1013.7 |
| 20260508014559 | 68 | 117 | 6.0 | 10.0 | 0.00 | 0.00 | 0.00 | 57 | 1013.5 |
| 20260508013104 | 68 | 116 | 4.0 | 9.0 | 0.00 | 0.00 | 0.00 | 56 | 1013.6 |
| 20260508011556 | 69 | 97 | 4.0 | 11.0 | 0.00 | 0.00 | 0.00 | 55 | 1013.2 |
| 20260508010049 | 70 | 115 | 8.0 | 13.0 | 0.00 | 0.00 | 0.00 | 52 | 1013.2 |
| 20260508004549 | 71 | 105 | 7.0 | 12.0 | 0.00 | 0.00 | 0.00 | 52 | 1013.2 |
| 20260508003049 | 72 | 96 | 11.0 | 15.0 | 0.00 | 0.00 | 0.00 | 51 | 1013.3 |
| 20260508001552 | 73 | 100 | 5.0 | 12.0 | 0.00 | 0.00 | 0.00 | 52 | 1013.6 |
| 20260508000048 | 74 | 103 | 6.0 | 12.0 | 0.00 | 0.00 | 0.00 | 49 | 1013.6 |
| 20260507234551 | 75 | 95 | 8.0 | 12.0 | 0.00 | 0.00 | 0.00 | 46 | 1013.6 |
| 20260507233049 | 74 | 118 | 9.0 | 14.0 | 0.00 | 0.00 | 0.00 | 45 | 1013.5 |
| 20260507231555 | 75 | 117 | 7.0 | 15.0 | 0.00 | 0.00 | 0.00 | 43 | 1013.6 |
| 20260507230055 | 75 | 111 | 5.0 | 12.0 | 0.00 | 0.00 | 0.00 | 47 | 1013.6 |
| 20260507224554 | 74 | 107 | 6.0 | 10.0 | 0.00 | 0.00 | 0.00 | 45 | 1013.9 |
| 20260507223051 | 74 | 86 | 7.0 | 12.0 | 0.00 | 0.00 | 0.00 | 46 | 1013.9 |
| 20260507221551 | 73 | 74 | 3.0 | 11.0 | 0.00 | 0.00 | 0.00 | 49 | 1014.0 |
| 20260507220048 | 74 | 107 | 2.0 | 8.0 | 0.00 | 0.00 | 0.00 | 50 | 1014.5 |
| 20260507214555 | 73 | 102 | 6.0 | 12.0 | 0.00 | 0.00 | 0.00 | 48 | 1014.7 |
| 20260507213055 | 73 | 0 | 1.0 | 8.0 | 0.00 | 0.00 | 0.00 | 49 | 1014.8 |
| 20260507211554 | 73 | 127 | 8.0 | 13.0 | 0.00 | 0.00 | 0.00 | 49 | 1015.1 |
| 20260507210054 | 72 | 105 | 4.0 | 10.0 | 0.00 | 0.00 | 0.00 | 51 | 1015.6 |
| 20260507204548 | 72 | 127 | 2.0 | 9.0 | 0.00 | 0.00 | 0.00 | 47 | 1015.9 |
| 20260507203051 | 72 | 105 | 1.0 | 8.0 | 0.00 | 0.00 | 0.00 | 49 | 1016.1 |
| 20260507201550 | 70 | 72 | 4.0 | 13.0 | 0.00 | 0.00 | 0.00 | 52 | 1016.3 |
| 20260507200055 | 69 | 111 | 3.0 | 10.0 | 0.00 | 0.00 | 0.00 | 51 | 1016.6 |
| 20260507194553 | 69 | 113 | 5.0 | 10.0 | 0.00 | 0.00 | 0.00 | 52 | 1017.1 |
| 20260507193053 | 68 | 119 | 4.0 | 11.0 | 0.00 | 0.00 | 0.00 | 52 | 1017.4 |
| 20260507191547 | 68 | 0 | 3.0 | 10.0 | 0.00 | 0.00 | 0.00 | 52 | 1017.4 |
| 20260507190054 | 67 | 83 | 1.0 | 6.0 | 0.00 | 0.00 | 0.00 | 54 | 1017.7 |
| 20260507184551 | 66 | 62 | 2.0 | 8.0 | 0.00 | 0.00 | 0.00 | 54 | 1018.0 |
| 20260507183103 | 65 | 342 | 5.0 | 8.0 | 0.00 | 0.00 | 0.00 | 55 | 1018.3 |
| 20260507181559 | 64 | 0 | 0.0 | 8.0 | 0.00 | 0.00 | 0.00 | 60 | 1018.8 |
| 20260507180056 | 63 | 61 | 3.0 | 9.0 | 0.00 | 0.00 | 0.00 | 58 | 1019.2 |
| 20260507174548 | 63 | 0 | 1.0 | 7.0 | 0.00 | 0.00 | 0.00 | 57 | 1019.4 |
| 20260507173100 | 62 | 0 | 0.0 | 6.0 | 0.00 | 0.00 | 0.00 | 60 | 1019.8 |
| 20260507171555 | 62 | 67 | 2.0 | 8.0 | 0.00 | 0.00 | 0.00 | 61 | 1019.9 |
| 20260507170056 | 60 | 78 | 3.0 | 9.0 | 0.00 | 0.00 | 0.00 | 65 | 1020.1 |
| 20260507164552 | 60 | 55 | 3.0 | 6.0 | 0.00 | 0.00 | 0.00 | 64 | 1020.3 |
| 20260507163047 | 60 | 74 | 0.0 | 6.0 | 0.00 | 0.00 | 0.00 | 66 | 1020.4 |
| 20260507161556 | 59 | 65 | 1.0 | 9.0 | 0.00 | 0.00 | 0.00 | 67 | 1020.3 |
| 20260507160051 | 59 | 33 | 5.0 | 10.0 | 0.00 | 0.00 | 0.00 | 66 | 1020.2 |
| 20260507154556 | 58 | 74 | 1.0 | 7.0 | 0.00 | 0.00 | 0.00 | 70 | 1020.5 |
| 20260507153102 | 57 | 76 | 3.0 | 8.0 | 0.00 | 0.00 | 0.00 | 72 | 1020.6 |
| 20260507151555 | 57 | 76 | 5.0 | 10.0 | 0.00 | 0.00 | 0.00 | 73 | 1020.6 |
| 20260507144552 | 56 | 84 | 3.0 | 7.0 | 0.00 | 0.00 | 0.00 | 73 | 1020.6 |
| 20260507143105 | 56 | 108 | 2.0 | 3.0 | 0.00 | 0.00 | 0.00 | 73 | 1020.6 |
| 20260507141552 | 56 | 82 | 4.0 | 9.0 | 0.00 | 0.00 | 0.00 | 74 | 1020.6 |
| 20260507140054 | 57 | 71 | 0.0 | 9.0 | 0.00 | 0.00 | 0.00 | 70 | 1020.7 |
| 20260507134553 | 57 | 360 | 2.0 | 8.0 | 0.00 | 0.00 | 0.00 | 58 | 1020.5 |
| 20260507133051 | 57 | 309 | 5.0 | 9.0 | 0.00 | 0.00 | 0.00 | 56 | 1020.4 |
| 20260507131553 | 57 | 324 | 6.0 | 9.0 | 0.00 | 0.00 | 0.00 | 56 | 1020.4 |
| 20260507124559 | 56 | 306 | 2.0 | 7.0 | 0.00 | 0.00 | 0.00 | 54 | 1019.7 |
| 20260507123055 | 56 | 307 | 4.0 | 10.0 | 0.00 | 0.00 | 0.00 | 54 | 1019.7 |
| 20260507121558 | 56 | 305 | 7.0 | 11.0 | 0.00 | 0.00 | 0.00 | 54 | 1019.4 |
| 20260507120053 | 56 | 339 | 5.0 | 8.0 | 0.00 | 0.00 | 0.00 | 54 | 1019.3 |
| 20260507114559 | 56 | 300 | 6.0 | 11.0 | 0.00 | 0.00 | 0.00 | 54 | 1019.2 |
| 20260507113052 | 56 | 301 | 8.0 | 11.0 | 0.00 | 0.00 | 0.00 | 54 | 1019.2 |
| 20260507111559 | 55 | 309 | 7.0 | 10.0 | 0.00 | 0.00 | 0.00 | 55 | 1018.9 |
| 20260507110100 | 54 | 304 | 5.0 | 9.0 | 0.00 | 0.00 | 0.00 | 55 | 1019.0 |
| 20260507104600 | 55 | 294 | 5.0 | 11.0 | 0.00 | 0.00 | 0.00 | 55 | 1018.8 |
| 20260507103128 | 55 | 306 | 7.0 | 13.0 | 0.00 | 0.00 | 0.00 | 55 | 1018.7 |
| 20260507101551 | 55 | 324 | 6.0 | 14.0 | 0.00 | 0.00 | 0.00 | 54 | 1018.4 |
| 20260507100106 | 56 | 329 | 9.0 | 14.0 | 0.00 | 0.00 | 0.00 | 53 | 1018.0 |
| 20260507094603 | 56 | 331 | 10.0 | 15.0 | 0.00 | 0.00 | 0.00 | 52 | 1017.7 |
| 20260507093052 | 57 | 329 | 10.0 | 18.0 | 0.00 | 0.00 | 0.00 | 51 | 1017.2 |
| 20260507091554 | 58 | 336 | 11.0 | 17.0 | 0.00 | 0.00 | 0.00 | 49 | 1016.7 |
| 20260507090057 | 59 | 345 | 14.0 | 19.0 | 0.00 | 0.00 | 0.00 | 46 | 1016.5 |
| 20260507084553 | 60 | 337 | 11.0 | 15.0 | 0.00 | 0.00 | 0.00 | 39 | 1016.2 |
| 20260507083050 | 61 | 259 | 1.0 | 2.0 | 0.00 | 0.00 | 0.00 | 38 | 1015.4 |
| 20260507081552 | 61 | 0 | 0.0 | 0.0 | 0.00 | 0.00 | 0.00 | 37 | 1015.6 |
| 20260507080054 | 60 | 223 | 1.0 | 2.0 | 0.00 | 0.00 | 0.00 | 39 | 1015.6 |
| 20260507074600 | 59 | 203 | 3.0 | 5.0 | 0.00 | 0.00 | 0.00 | 41 | 1015.7 |
| 20260507073048 | 59 | 0 | 0.0 | 9.0 | 0.00 | 0.00 | 0.00 | 45 | 1015.7 |
| 20260507071557 | 63 | 0 | 0.0 | 4.0 | 0.00 | 0.00 | 0.00 | 33 | 1015.5 |
| 20260507070104 | 61 | 42 | 3.0 | 7.0 | 0.00 | 0.00 | 0.00 | 41 | 1015.5 |
| 20260507064559 | 63 | 0 | 0.0 | 0.0 | 0.00 | 0.00 | 0.00 | 33 | 1015.4 |
| 20260507063051 | 65 | 293 | 3.0 | 7.0 | 0.00 | 0.00 | 0.00 | 31 | 1015.2 |
| 20260507061550 | 62 | 0 | 0.0 | 2.0 | 0.00 | 0.00 | 0.00 | 35 | 1015.2 |